{"data":{"norad_id":45746,"intl_designator":"2020-038S","name":"STARLINK-1504","alt_names":[],"object_type":"PAYLOAD","status":"ACTIVE","operator":null,"country":"US","launch_date":"2020-06-13","launch_site_code":"AFETR","launch_vehicle":null,"mission":null,"orbit_class":"UNKNOWN","rcs_meters":null,"size_class":null,"mass_kg":null,"dimensions":null,"purposes":["comms"],"wikipedia_slug":null,"has_3d_model":false,"image_url":null,"decayed_at":null,"tle_current":{"epoch":"2026-05-25T03:12:12.876768Z","epoch_age_seconds":74237,"freshness":"FRESH","line1":"1 45746U 20038S   26145.13348237  .00031872  00000+0  42285-3 0  9992","line2":"2 45746  53.0194 131.9528 0003706  58.4978 301.6394 15.57976781329417","mean_motion":15.57976781,"eccentricity":0.0003706,"inclination_deg":53.0194,"raan_deg":131.9528,"arg_perigee_deg":58.4978,"mean_anomaly_deg":301.6394,"bstar":0.00042285,"rev_number":32941,"period_min":92.427564875243,"perigee_km":391.00370146876,"apogee_km":396.02284865264,"semimajor_km":6771.6502750607,"source":"CELESTRAK","updated_at":"2026-05-25T13:38:16.433228Z"}}}